Year,Month,Day,Hour,Minute,Value (Times are PST for temperature in C)
2015,01,28,10,21,6.20
2015,01,28,10,22,6.30
2015,01,28,10,23,6.30
2015,01,28,10,24,6.30
2015,01,28,10,25,6.30
2015,01,28,10,26,6.30
2015,01,28,10,27,6.30
2015,01,28,10,28,6.30
2015,01,28,10,29,6.30
2015,01,28,10,30,6.40
2015,01,28,10,31,6.40
2015,01,28,10,32,6.40
2015,01,28,10,33,6.40
2015,01,28,10,34,6.40
2015,01,28,10,35,6.40
2015,01,28,10,36,6.40
2015,01,28,10,37,6.50
2015,01,28,10,38,6.50
2015,01,28,10,39,6.50
2015,01,28,10,40,6.50
2015,01,28,10,41,6.60
2015,01,28,10,42,6.60
2015,01,28,10,43,6.60
2015,01,28,10,44,6.60
2015,01,28,10,45,6.60
2015,01,28,10,46,6.60
2015,01,28,10,47,6.60
2015,01,28,10,48,6.60
2015,01,28,10,49,6.70
2015,01,28,10,50,6.70
2015,01,28,10,51,6.70
2015,01,28,10,52,6.60
2015,01,28,10,53,6.70
2015,01,28,10,54,6.70
2015,01,28,10,55,6.70
2015,01,28,10,56,6.70
2015,01,28,10,57,6.70
2015,01,28,10,58,6.70
2015,01,28,10,59,6.70
2015,01,28,11,00,6.70
2015,01,28,11,01,6.80
2015,01,28,11,02,6.80
2015,01,28,11,03,6.80
2015,01,28,11,04,6.80
2015,01,28,11,05,6.80
2015,01,28,11,06,6.90
2015,01,28,11,07,6.90
2015,01,28,11,08,6.90
2015,01,28,11,09,6.90
2015,01,28,11,10,7.00
2015,01,28,11,11,7.00
2015,01,28,11,12,7.00
2015,01,28,11,13,7.10
2015,01,28,11,14,7.10
2015,01,28,11,15,7.20
2015,01,28,11,16,7.20
2015,01,28,11,17,7.20
2015,01,28,11,18,7.30
2015,01,28,11,19,7.30
2015,01,28,11,20,7.30
2015,01,28,11,21,7.40
2015,01,28,11,22,7.40
2015,01,28,11,23,7.40
2015,01,28,11,24,7.40
2015,01,28,11,25,7.50
2015,01,28,11,26,7.50
2015,01,28,11,27,7.60
2015,01,28,11,28,7.60
2015,01,28,11,29,7.70
2015,01,28,11,30,7.70
2015,01,28,11,31,7.80
2015,01,28,11,32,7.80
2015,01,28,11,33,7.90
2015,01,28,11,34,7.90
2015,01,28,11,35,7.90
2015,01,28,11,36,8.00
2015,01,28,11,37,8.00
2015,01,28,11,38,8.00
2015,01,28,11,39,8.00
2015,01,28,11,40,8.00
2015,01,28,11,41,8.10
2015,01,28,11,42,8.10
2015,01,28,11,43,8.20
2015,01,28,11,44,8.20
2015,01,28,11,45,8.30
2015,01,28,11,46,8.30
2015,01,28,11,47,8.40
2015,01,28,11,48,8.40
2015,01,28,11,49,8.40
2015,01,28,11,50,8.50
2015,01,28,11,51,8.50
2015,01,28,11,52,8.50
2015,01,28,11,53,8.50
2015,01,28,11,54,8.50
2015,01,28,11,55,8.50
2015,01,28,11,56,8.50
2015,01,28,11,57,8.50
2015,01,28,11,58,8.50
2015,01,28,11,59,8.50
2015,01,28,12,00,8.50
2015,01,28,12,01,8.50
2015,01,28,12,02,8.50
2015,01,28,12,03,8.50
2015,01,28,12,04,8.60
2015,01,28,12,05,8.60
2015,01,28,12,06,8.70
2015,01,28,12,07,8.70
2015,01,28,12,08,8.70
2015,01,28,12,09,8.80
2015,01,28,12,10,8.80
2015,01,28,12,11,8.80
2015,01,28,12,12,8.80
2015,01,28,12,13,8.80
2015,01,28,12,14,8.80
2015,01,28,12,15,8.80
2015,01,28,12,16,8.80
2015,01,28,12,17,8.80
2015,01,28,12,18,8.80
2015,01,28,12,19,8.90
2015,01,28,12,20,8.90
2015,01,28,12,21,8.90
2015,01,28,12,22,8.90
2015,01,28,12,23,8.90
2015,01,28,12,24,9.00
2015,01,28,12,25,9.00
2015,01,28,12,26,9.00
2015,01,28,12,27,9.00
2015,01,28,12,28,9.00
2015,01,28,12,29,9.00
2015,01,28,12,30,8.90
2015,01,28,12,31,8.90
2015,01,28,12,32,8.90
2015,01,28,12,33,9.00
2015,01,28,12,34,9.00
2015,01,28,12,35,9.00
2015,01,28,12,36,9.10
2015,01,28,12,37,9.10
2015,01,28,12,38,9.10
2015,01,28,12,39,9.10
2015,01,28,12,40,9.10
2015,01,28,12,41,9.10
2015,01,28,12,42,9.10
2015,01,28,12,43,9.10
2015,01,28,12,44,9.10
2015,01,28,12,45,9.20
2015,01,28,12,46,9.20
2015,01,28,12,47,9.30
2015,01,28,12,48,9.30
2015,01,28,12,49,9.40
2015,01,28,12,50,9.50
2015,01,28,12,51,9.60
2015,01,28,12,52,9.60
2015,01,28,12,53,9.70
2015,01,28,12,54,9.70
2015,01,28,12,55,9.70
2015,01,28,12,56,9.80
2015,01,28,12,57,9.80
2015,01,28,12,58,9.80
2015,01,28,12,59,9.80
2015,01,28,13,00,9.80
2015,01,28,13,01,9.70
2015,01,28,13,02,9.70
2015,01,28,13,03,9.70
2015,01,28,13,04,9.70
2015,01,28,13,05,9.70
2015,01,28,13,06,9.70
2015,01,28,13,07,9.70
2015,01,28,13,08,9.70
2015,01,28,13,09,9.70
2015,01,28,13,10,9.70
2015,01,28,13,11,9.80
2015,01,28,13,12,9.80
2015,01,28,13,13,9.90
2015,01,28,13,14,9.90
2015,01,28,13,15,9.90
2015,01,28,13,16,9.80
2015,01,28,13,17,9.80
2015,01,28,13,18,9.80
2015,01,28,13,19,9.70
2015,01,28,13,20,9.70
2015,01,28,13,21,9.70
2015,01,28,13,22,9.70
2015,01,28,13,23,9.70
2015,01,28,13,24,9.80
2015,01,28,13,25,9.80
2015,01,28,13,26,9.90
2015,01,28,13,27,9.90
2015,01,28,13,28,9.90
2015,01,28,13,29,10.00
2015,01,28,13,30,10.00
2015,01,28,13,31,9.90
2015,01,28,13,32,9.90
2015,01,28,13,33,9.90
2015,01,28,13,34,9.80
2015,01,28,13,35,9.80
2015,01,28,13,36,9.80
2015,01,28,13,37,9.80
2015,01,28,13,38,9.80
2015,01,28,13,39,9.80
2015,01,28,13,40,9.90
2015,01,28,13,41,9.90
2015,01,28,13,42,9.90
2015,01,28,13,43,10.00
2015,01,28,13,44,10.00
2015,01,28,13,45,10.00
2015,01,28,13,46,10.00
2015,01,28,13,47,10.00
2015,01,28,13,48,10.00
2015,01,28,13,49,10.10
2015,01,28,13,50,10.10
2015,01,28,13,51,10.10
2015,01,28,13,52,10.10
2015,01,28,13,53,10.10
2015,01,28,13,54,10.10
2015,01,28,13,55,10.10
2015,01,28,13,56,10.10
2015,01,28,13,57,10.10
2015,01,28,13,58,10.10
2015,01,28,13,59,10.10
2015,01,28,14,00,10.10
2015,01,28,14,01,10.20
2015,01,28,14,02,10.20
2015,01,28,14,03,10.30
2015,01,28,14,04,10.30
2015,01,28,14,05,10.30
2015,01,28,14,06,10.30
2015,01,28,14,07,10.30
2015,01,28,14,08,10.30
2015,01,28,14,09,10.30
2015,01,28,14,10,10.30
2015,01,28,14,11,10.30
2015,01,28,14,12,10.30
2015,01,28,14,13,10.30
2015,01,28,14,14,10.20
2015,01,28,14,15,10.20
2015,01,28,14,16,10.10
2015,01,28,14,17,10.00
2015,01,28,14,18,9.80
2015,01,28,14,19,9.70
2015,01,28,14,20,9.60
2015,01,28,14,21,9.60
2015,01,28,14,22,9.60
2015,01,28,14,23,9.60
2015,01,28,14,24,9.60
2015,01,28,14,25,9.60
2015,01,28,14,26,9.60
2015,01,28,14,27,9.70
2015,01,28,14,28,9.70
2015,01,28,14,29,9.70
2015,01,28,14,30,9.70
2015,01,28,14,31,9.80
2015,01,28,14,32,9.80
2015,01,28,14,33,9.90
2015,01,28,14,34,9.90
2015,01,28,14,35,9.90
2015,01,28,14,36,9.90
2015,01,28,14,37,9.90
2015,01,28,14,38,10.00
2015,01,28,14,39,10.00
2015,01,28,14,40,10.00
2015,01,28,14,41,10.10
2015,01,28,14,42,10.10
2015,01,28,14,43,10.10
2015,01,28,14,44,10.10
2015,01,28,14,45,10.10
2015,01,28,14,46,10.10
2015,01,28,14,47,10.10
2015,01,28,14,48,10.10
2015,01,28,14,49,10.10
2015,01,28,14,50,10.10
2015,01,28,14,51,10.10
2015,01,28,14,52,10.10
2015,01,28,14,53,10.00
2015,01,28,14,54,10.00
2015,01,28,14,55,9.90
2015,01,28,14,56,9.90
2015,01,28,14,57,9.90
2015,01,28,14,58,10.00
2015,01,28,14,59,10.00
2015,01,28,15,00,10.00
2015,01,28,15,01,9.90
2015,01,28,15,02,10.00
2015,01,28,15,03,10.00
2015,01,28,15,04,10.00
2015,01,28,15,05,9.90
2015,01,28,15,06,9.90
2015,01,28,15,07,9.90
2015,01,28,15,08,9.90
2015,01,28,15,09,10.00
2015,01,28,15,10,10.00
2015,01,28,15,11,10.00
2015,01,28,15,12,10.00
2015,01,28,15,13,10.00
2015,01,28,15,14,10.00
2015,01,28,15,15,10.00
2015,01,28,15,16,10.00
2015,01,28,15,17,10.00
2015,01,28,15,18,10.00
2015,01,28,15,19,10.00
2015,01,28,15,20,10.00
2015,01,28,15,21,10.00
2015,01,28,15,22,10.00
2015,01,28,15,23,10.00
2015,01,28,15,24,10.00
2015,01,28,15,25,10.10
2015,01,28,15,26,10.00
2015,01,28,15,27,10.00
2015,01,28,15,28,10.10
2015,01,28,15,29,10.10
2015,01,28,15,30,10.10
2015,01,28,15,31,10.10
2015,01,28,15,32,10.10
2015,01,28,15,33,10.10
2015,01,28,15,34,10.10
2015,01,28,15,35,10.20
2015,01,28,15,36,10.10
2015,01,28,15,37,10.10
2015,01,28,15,38,10.10
2015,01,28,15,39,10.10
2015,01,28,15,40,10.10
2015,01,28,15,41,10.10
2015,01,28,15,42,10.10
2015,01,28,15,43,10.10
2015,01,28,15,44,10.10
2015,01,28,15,45,10.10
2015,01,28,15,46,10.10
2015,01,28,15,47,10.10
2015,01,28,15,48,10.10
2015,01,28,15,49,10.10
2015,01,28,15,50,10.10
2015,01,28,15,51,10.10
2015,01,28,15,52,10.00
2015,01,28,15,53,10.00
2015,01,28,15,54,9.90
2015,01,28,15,55,9.90
2015,01,28,15,56,9.90
2015,01,28,15,57,9.90
2015,01,28,15,58,9.90
2015,01,28,15,59,9.90
2015,01,28,16,00,9.90
2015,01,28,16,01,9.90
2015,01,28,16,02,9.90
2015,01,28,16,03,9.90
2015,01,28,16,04,9.90
2015,01,28,16,05,9.80
2015,01,28,16,06,9.80
2015,01,28,16,07,9.80
2015,01,28,16,08,9.80
2015,01,28,16,09,9.80
2015,01,28,16,10,9.80
2015,01,28,16,11,9.80
2015,01,28,16,12,9.80
2015,01,28,16,13,9.80
2015,01,28,16,14,9.80
2015,01,28,16,15,9.70
2015,01,28,16,16,9.70
2015,01,28,16,17,9.70
2015,01,28,16,18,9.70
2015,01,28,16,19,9.70
2015,01,28,16,20,9.70
2015,01,28,16,21,9.70
2015,01,28,16,22,9.60
2015,01,28,16,23,9.60
2015,01,28,16,24,9.60
2015,01,28,16,25,9.60
2015,01,28,16,26,9.60
2015,01,28,16,27,9.60
2015,01,28,16,28,9.50
2015,01,28,16,29,9.50
2015,01,28,16,30,9.50
2015,01,28,16,31,9.50
2015,01,28,16,32,9.40
2015,01,28,16,33,9.40
2015,01,28,16,34,9.40
2015,01,28,16,35,9.40
2015,01,28,16,36,9.40
2015,01,28,16,37,9.30
2015,01,28,16,38,9.30
2015,01,28,16,39,9.30
2015,01,28,16,40,9.20
2015,01,28,16,41,9.20
2015,01,28,16,42,9.20
2015,01,28,16,43,9.20
2015,01,28,16,44,9.10
2015,01,28,16,45,9.10
2015,01,28,16,46,9.10
2015,01,28,16,47,9.00
2015,01,28,16,48,9.00
2015,01,28,16,49,9.00
2015,01,28,16,50,8.90
2015,01,28,16,51,8.90
2015,01,28,16,52,8.80
2015,01,28,16,53,8.80
2015,01,28,16,54,8.80
2015,01,28,16,55,8.80
2015,01,28,16,56,8.70
2015,01,28,16,57,8.70
2015,01,28,16,58,8.70
2015,01,28,16,59,8.70
2015,01,28,17,00,8.70
2015,01,28,17,01,8.60
2015,01,28,17,02,8.60
2015,01,28,17,03,8.50
2015,01,28,17,04,8.50
2015,01,28,17,05,8.40
2015,01,28,17,06,8.40
2015,01,28,17,07,8.30
2015,01,28,17,08,8.30
2015,01,28,17,09,8.30
2015,01,28,17,10,8.20
2015,01,28,17,11,8.20
2015,01,28,17,12,8.20
2015,01,28,17,13,8.10
2015,01,28,17,14,8.10
2015,01,28,17,15,8.00
2015,01,28,17,16,8.00
2015,01,28,17,17,7.90
2015,01,28,17,18,7.90
2015,01,28,17,19,7.80
2015,01,28,17,20,7.80
2015,01,28,17,21,7.80
2015,01,28,17,22,7.70
2015,01,28,17,23,7.60
2015,01,28,17,24,7.60
2015,01,28,17,25,7.50
2015,01,28,17,26,7.50
2015,01,28,17,27,7.40
2015,01,28,17,28,7.30
2015,01,28,17,29,7.30
2015,01,28,17,30,7.20
2015,01,28,17,31,7.20
2015,01,28,17,32,7.10
2015,01,28,17,33,7.10
2015,01,28,17,34,7.00
2015,01,28,17,35,6.90
2015,01,28,17,36,6.90
2015,01,28,17,37,6.80
2015,01,28,17,38,6.80
2015,01,28,17,39,6.80
2015,01,28,17,40,6.80
2015,01,28,17,41,6.80
2015,01,28,17,42,6.80
2015,01,28,17,43,6.80
2015,01,28,17,44,6.80
2015,01,28,17,45,6.80
2015,01,28,17,46,6.80
2015,01,28,17,47,6.80
